IBE414 LEBL-LEMD

Flight info

Callsign IBE414
Flight time 0h 58m
Altitude 28000
Route SENIA Z596 CRETA/N0432F290 Z596 NEXAS N975 ADUXO
Aircraft A343/H-SDE2E3FGHIJ4J5M1RWXY/LB1D1

Departure

Time 2026-05-01 13:28
Airport Josep Tarradellas Barcelona-El Prat Airport (LEBL)

Arrival

Time 2026-05-01 14:26
Airport Adolfo Suárez Madrid–Barajas Airport (LEMD)
Time Latitude Longitude Altitude Speed Heading
2026-05-01 12:55 41.29170 2.07484 25 ft 0 kts 230°
2026-05-01 13:15 41.29178 2.07496 26 ft 4 kts 230°
2026-05-01 13:16 41.29189 2.07514 28 ft 4 kts 230°
2026-05-01 13:16 41.29207 2.07541 28 ft 4 kts 229°
2026-05-01 13:16 41.29224 2.07569 28 ft 4 kts 229°
2026-05-01 13:17 41.29256 2.07617 27 ft 0 kts 229°
2026-05-01 13:20 41.29254 2.07608 26 ft 1 kts 256°
2026-05-01 13:20 41.29265 2.07593 25 ft 3 kts 323°
2026-05-01 13:20 41.29327 2.07578 20 ft 11 kts 12°
2026-05-01 13:21 41.29404 2.07731 20 ft 13 kts 63°
2026-05-01 13:21 41.29449 2.07852 20 ft 16 kts 64°
2026-05-01 13:21 41.29498 2.08000 20 ft 19 kts 69°
2026-05-01 13:21 41.29551 2.08172 20 ft 16 kts 68°
2026-05-01 13:22 41.29563 2.08219 20 ft 12 kts 78°
2026-05-01 13:22 41.29537 2.08291 21 ft 4 kts 158°
2026-05-01 13:22 41.29451 2.08333 22 ft 23 kts 160°
2026-05-01 13:22 41.29302 2.08423 27 ft 24 kts 155°
2026-05-01 13:23 41.29152 2.08425 27 ft 22 kts 199°
2026-05-01 13:23 41.28996 2.08354 25 ft 25 kts 199°
2026-05-01 13:23 41.28825 2.08278 23 ft 23 kts 198°
2026-05-01 13:23 41.28698 2.08216 23 ft 16 kts 209°
2026-05-01 13:24 41.28654 2.08134 21 ft 11 kts 244°
2026-05-01 13:24 41.28617 2.08024 21 ft 15 kts 246°
2026-05-01 13:24 41.28571 2.07887 20 ft 18 kts 246°
2026-05-01 13:25 41.28465 2.07576 23 ft 19 kts 245°
2026-05-01 13:25 41.28420 2.07445 22 ft 16 kts 245°
2026-05-01 13:25 41.28359 2.07342 21 ft 10 kts 209°
2026-05-01 13:25 41.28335 2.07340 20 ft 2 kts 175°
2026-05-01 13:26 41.28333 2.07340 20 ft 0 kts 175°
2026-05-01 13:26 41.28323 2.07341 20 ft 4 kts 175°
2026-05-01 13:26 41.28317 2.07342 20 ft 2 kts 175°
2026-05-01 13:26 41.28291 2.07357 21 ft 10 kts 155°
2026-05-01 13:27 41.28238 2.07406 23 ft 8 kts 121°
2026-05-01 13:27 41.28241 2.07469 27 ft 6 kts 67°
2026-05-01 13:27 41.28596 2.08500 30 ft 135 kts 65°
2026-05-01 13:28 41.29517 2.11244 1287 ft 168 kts 67°
2026-05-01 13:28 41.29596 2.12868 1907 ft 191 kts 103°
2026-05-01 13:29 41.28881 2.16506 3849 ft 211 kts 102°
2026-05-01 13:29 41.28409 2.20458 5643 ft 221 kts 97°
2026-05-01 13:30 41.27719 2.28752 8724 ft 229 kts 96°
2026-05-01 13:31 41.26835 2.32918 10643 ft 253 kts 115°
2026-05-01 13:31 41.23149 2.39282 12086 ft 333 kts 156°
2026-05-01 13:32 41.18539 2.39035 13713 ft 350 kts 208°
2026-05-01 13:33 41.15250 2.30723 15861 ft 365 kts 270°
2026-05-01 13:33 41.14992 2.24017 16003 ft 368 kts 263°
2026-05-01 13:34 41.14120 2.17316 16014 ft 369 kts 258°
2026-05-01 13:34 41.12990 2.10613 17273 ft 375 kts 257°
2026-05-01 13:35 41.11768 2.03822 19065 ft 382 kts 256°
2026-05-01 13:35 41.11134 2.00365 19901 ft 387 kts 256°
2026-05-01 13:35 41.09839 1.93374 21422 ft 397 kts 256°
2026-05-01 13:36 41.09174 1.89804 22161 ft 401 kts 256°
2026-05-01 13:36 41.08499 1.86195 22860 ft 405 kts 256°
2026-05-01 13:36 41.07123 1.78856 24181 ft 414 kts 256°
2026-05-01 13:37 41.06424 1.75138 24806 ft 418 kts 256°
2026-05-01 13:37 41.05715 1.71376 25402 ft 422 kts 256°
2026-05-01 13:37 41.05000 1.67584 25981 ft 426 kts 256°
2026-05-01 13:37 41.04277 1.63760 26544 ft 430 kts 256°
2026-05-01 13:38 41.02810 1.56023 27424 ft 439 kts 256°
2026-05-01 13:38 41.02060 1.52079 27839 ft 444 kts 256°
2026-05-01 13:38 41.01303 1.48109 27985 ft 446 kts 256°
2026-05-01 13:39 41.00542 1.44123 28003 ft 447 kts 256°
2026-05-01 13:39 40.99775 1.40117 27999 ft 447 kts 256°
2026-05-01 13:39 40.99010 1.36125 27999 ft 448 kts 256°
2026-05-01 13:40 40.97482 1.28179 27999 ft 448 kts 256°
2026-05-01 13:40 40.95938 1.20183 28002 ft 448 kts 256°
2026-05-01 13:40 40.95165 1.16193 27999 ft 448 kts 256°
2026-05-01 13:41 40.94390 1.12196 27998 ft 448 kts 256°
2026-05-01 13:41 40.93613 1.08203 27998 ft 448 kts 256°
2026-05-01 13:41 40.92835 1.04211 27998 ft 448 kts 256°
2026-05-01 13:42 40.91285 0.96277 28000 ft 448 kts 255°
2026-05-01 13:42 40.90503 0.92288 27996 ft 448 kts 255°
2026-05-01 13:42 40.89721 0.88309 28000 ft 448 kts 255°
2026-05-01 13:43 40.88152 0.80341 28002 ft 448 kts 255°
2026-05-01 13:43 40.87387 0.76354 27999 ft 448 kts 257°
2026-05-01 13:43 40.86935 0.72281 28012 ft 448 kts 266°
2026-05-01 13:43 40.86796 0.68168 27997 ft 449 kts 269°
2026-05-01 13:44 40.86795 0.64041 28003 ft 449 kts 271°
2026-05-01 13:44 40.86854 0.59909 27999 ft 450 kts 271°
2026-05-01 13:44 40.86930 0.55773 28004 ft 451 kts 271°
2026-05-01 13:45 40.87049 0.47516 27997 ft 449 kts 271°
2026-05-01 13:45 40.87115 0.39268 28005 ft 449 kts 270°
2026-05-01 13:45 40.87139 0.35139 27997 ft 450 kts 270°
2026-05-01 13:46 40.87158 0.30984 28004 ft 453 kts 270°
2026-05-01 13:46 40.87174 0.26830 27998 ft 452 kts 270°
2026-05-01 13:46 40.87187 0.22668 28005 ft 452 kts 270°
2026-05-01 13:46 40.87199 0.18568 27997 ft 452 kts 270°
2026-05-01 13:47 40.87211 0.14419 28005 ft 452 kts 270°
2026-05-01 13:47 40.87232 0.06104 28327 ft 453 kts 270°
2026-05-01 13:47 40.87242 0.01931 28780 ft 456 kts 270°
2026-05-01 13:48 40.87250 -0.02278 28986 ft 457 kts 270°
2026-05-01 13:48 40.87260 -0.10658 29000 ft 456 kts 270°
2026-05-01 13:49 40.87263 -0.19042 29000 ft 456 kts 270°
2026-05-01 13:49 40.87261 -0.27402 29000 ft 455 kts 270°
2026-05-01 13:50 40.87253 -0.35721 29000 ft 456 kts 270°
2026-05-01 13:50 40.87239 -0.44101 29000 ft 456 kts 270°
2026-05-01 13:51 40.87219 -0.52486 29000 ft 457 kts 270°
2026-05-01 13:51 40.87194 -0.60900 29000 ft 457 kts 270°
2026-05-01 13:52 40.87162 -0.69300 29000 ft 457 kts 270°
2026-05-01 13:52 40.86952 -0.77696 28999 ft 457 kts 262°
2026-05-01 13:53 40.85355 -0.85750 28999 ft 458 kts 251°
2026-05-01 13:53 40.82098 -0.97619 29000 ft 458 kts 249°
2026-05-01 13:54 40.79860 -1.05518 29000 ft 459 kts 250°
2026-05-01 13:54 40.77654 -1.13371 29000 ft 459 kts 250°
2026-05-01 13:55 40.75441 -1.21283 29000 ft 460 kts 250°
2026-05-01 13:55 40.73221 -1.29204 29000 ft 460 kts 250°
2026-05-01 13:56 40.72653 -1.31233 29000 ft 459 kts 250°
2026-05-01 13:56 40.71292 -1.36078 29000 ft 458 kts 250°
2026-05-01 13:57 40.69448 -1.42624 29000 ft 458 kts 250°
2026-05-01 13:57 40.67975 -1.47842 28538 ft 450 kts 250°
2026-05-01 13:57 40.66883 -1.51700 27786 ft 449 kts 250°
2026-05-01 13:58 40.65794 -1.55546 27096 ft 447 kts 250°
2026-05-01 13:58 40.64710 -1.59367 26465 ft 443 kts 250°
2026-05-01 13:58 40.63636 -1.63149 25842 ft 439 kts 249°
2026-05-01 13:58 40.62569 -1.66899 25212 ft 435 kts 249°
2026-05-01 13:59 40.61520 -1.70584 24884 ft 424 kts 249°
2026-05-01 13:59 40.60509 -1.74126 24627 ft 412 kts 249°
2026-05-01 13:59 40.59514 -1.77608 24399 ft 401 kts 249°
2026-05-01 13:59 40.58547 -1.80990 24175 ft 390 kts 249°
2026-05-01 14:00 40.57604 -1.84283 23952 ft 379 kts 249°
2026-05-01 14:00 40.56682 -1.87499 23749 ft 370 kts 249°
2026-05-01 14:00 40.55782 -1.90634 23434 ft 364 kts 249°
2026-05-01 14:00 40.54892 -1.93731 23074 ft 360 kts 249°
2026-05-01 14:01 40.54010 -1.96796 22688 ft 357 kts 249°
2026-05-01 14:01 40.53427 -1.98819 22423 ft 356 kts 249°
2026-05-01 14:01 40.52553 -2.01848 22032 ft 353 kts 249°
2026-05-01 14:01 40.51685 -2.04857 21658 ft 351 kts 249°
2026-05-01 14:02 40.50822 -2.07841 21276 ft 348 kts 249°
2026-05-01 14:02 40.49963 -2.10801 20890 ft 346 kts 249°
2026-05-01 14:02 40.49110 -2.13743 20504 ft 344 kts 249°
2026-05-01 14:02 40.48259 -2.16670 20113 ft 341 kts 249°
2026-05-01 14:03 40.47416 -2.19569 19768 ft 339 kts 249°
2026-05-01 14:03 40.46577 -2.22451 19401 ft 337 kts 249°
2026-05-01 14:03 40.45744 -2.25312 19033 ft 334 kts 249°
2026-05-01 14:03 40.44994 -2.28198 18519 ft 336 kts 254°
2026-05-01 14:04 40.44453 -2.31234 17754 ft 348 kts 260°
2026-05-01 14:04 40.44282 -2.34416 17214 ft 350 kts 278°
2026-05-01 14:04 40.45090 -2.37371 16943 ft 342 kts 303°
2026-05-01 14:04 40.46735 -2.39924 16770 ft 331 kts 312°
2026-05-01 14:05 40.48094 -2.41982 16555 ft 325 kts 308°
2026-05-01 14:05 40.49443 -2.44345 16248 ft 321 kts 304°
2026-05-01 14:05 40.50677 -2.46783 15901 ft 319 kts 302°
2026-05-01 14:05 40.51835 -2.49255 15580 ft 317 kts 301°
2026-05-01 14:06 40.52935 -2.51709 15246 ft 315 kts 300°
2026-05-01 14:06 40.54022 -2.54199 14923 ft 313 kts 299°
2026-05-01 14:06 40.55093 -2.56687 14593 ft 312 kts 299°
2026-05-01 14:06 40.56151 -2.59168 14271 ft 310 kts 299°
2026-05-01 14:07 40.57202 -2.61640 13922 ft 309 kts 299°
2026-05-01 14:07 40.58245 -2.64107 13596 ft 307 kts 299°
2026-05-01 14:07 40.59282 -2.66561 13252 ft 306 kts 299°
2026-05-01 14:08 40.61305 -2.71361 12918 ft 292 kts 298°
2026-05-01 14:08 40.62277 -2.73669 12795 ft 284 kts 298°
2026-05-01 14:08 40.63223 -2.75920 12685 ft 277 kts 298°
2026-05-01 14:08 40.64133 -2.78085 12565 ft 271 kts 298°
2026-05-01 14:09 40.65038 -2.80241 12376 ft 268 kts 298°
2026-05-01 14:09 40.65938 -2.82382 12183 ft 266 kts 299°
2026-05-01 14:09 40.66883 -2.84469 11946 ft 265 kts 301°
2026-05-01 14:09 40.67851 -2.86529 11704 ft 264 kts 301°
2026-05-01 14:10 40.68915 -2.88801 11488 ft 262 kts 301°
2026-05-01 14:10 40.69767 -2.90631 11275 ft 261 kts 301°
2026-05-01 14:10 40.70712 -2.92669 11044 ft 260 kts 301°
2026-05-01 14:10 40.71653 -2.94705 10810 ft 260 kts 301°
2026-05-01 14:11 40.72591 -2.96740 10564 ft 259 kts 301°
2026-05-01 14:11 40.74455 -3.00789 10107 ft 257 kts 301°
2026-05-01 14:11 40.75367 -3.02771 9858 ft 256 kts 301°
2026-05-01 14:12 40.76290 -3.04780 9607 ft 255 kts 301°
2026-05-01 14:12 40.77207 -3.06777 9387 ft 254 kts 301°
2026-05-01 14:12 40.78118 -3.08764 9135 ft 253 kts 301°
2026-05-01 14:12 40.79026 -3.10745 8881 ft 252 kts 301°
2026-05-01 14:13 40.79932 -3.12721 8637 ft 251 kts 301°
2026-05-01 14:13 40.80832 -3.14685 8387 ft 250 kts 301°
2026-05-01 14:13 40.81727 -3.16642 8134 ft 249 kts 301°
2026-05-01 14:13 40.82621 -3.18598 7885 ft 248 kts 301°
2026-05-01 14:14 40.83511 -3.20547 7661 ft 247 kts 301°
2026-05-01 14:14 40.84399 -3.22491 7438 ft 247 kts 301°
2026-05-01 14:14 40.85285 -3.24430 7207 ft 246 kts 301°
2026-05-01 14:14 40.86169 -3.26359 6978 ft 245 kts 301°
2026-05-01 14:15 40.87047 -3.28280 6845 ft 244 kts 301°
2026-05-01 14:15 40.87924 -3.30204 6834 ft 244 kts 301°
2026-05-01 14:15 40.88800 -3.32126 6835 ft 244 kts 301°
2026-05-01 14:15 40.89666 -3.34022 6835 ft 244 kts 301°
2026-05-01 14:16 40.90541 -3.35942 6838 ft 244 kts 301°
2026-05-01 14:16 40.91406 -3.37868 6786 ft 243 kts 299°
2026-05-01 14:16 40.92131 -3.39879 6693 ft 243 kts 290°
2026-05-01 14:16 40.92593 -3.42022 6580 ft 241 kts 280°
2026-05-01 14:17 40.92757 -3.44229 6470 ft 242 kts 270°
2026-05-01 14:17 40.92619 -3.46451 6385 ft 242 kts 260°
2026-05-01 14:17 40.92189 -3.48580 6261 ft 240 kts 250°
2026-05-01 14:17 40.91479 -3.50585 6154 ft 241 kts 240°
2026-05-01 14:18 40.90514 -3.52389 6055 ft 239 kts 230°
2026-05-01 14:18 40.89328 -3.53935 5944 ft 241 kts 220°
2026-05-01 14:18 40.87949 -3.55190 5893 ft 241 kts 210°
2026-05-01 14:18 40.86956 -3.55835 5820 ft 240 kts 203°
2026-05-01 14:19 40.84795 -3.56568 5655 ft 241 kts 181°
2026-05-01 14:19 40.83136 -3.56434 5533 ft 239 kts 175°
2026-05-01 14:19 40.81470 -3.56249 5460 ft 240 kts 176°
2026-05-01 14:19 40.79832 -3.56163 5374 ft 231 kts 179°
2026-05-01 14:20 40.78257 -3.56143 5332 ft 221 kts 180°
2026-05-01 14:20 40.75354 -3.56123 5353 ft 197 kts 180°
2026-05-01 14:20 40.73977 -3.56114 5349 ft 199 kts 180°
2026-05-01 14:21 40.72602 -3.56106 5337 ft 201 kts 180°
2026-05-01 14:21 40.71207 -3.56097 5333 ft 199 kts 180°
2026-05-01 14:21 40.69829 -3.56085 5282 ft 197 kts 180°
2026-05-01 14:22 40.67175 -3.56061 4788 ft 187 kts 180°
2026-05-01 14:22 40.65893 -3.56051 4520 ft 180 kts 180°
2026-05-01 14:22 40.64680 -3.56040 4287 ft 172 kts 180°
2026-05-01 14:22 40.63501 -3.56030 4068 ft 163 kts 180°
2026-05-01 14:23 40.62421 -3.56020 3844 ft 150 kts 180°
2026-05-01 14:23 40.61420 -3.56012 3651 ft 138 kts 180°
2026-05-01 14:23 40.60494 -3.56004 3471 ft 128 kts 180°
2026-05-01 14:23 40.59604 -3.55997 3314 ft 127 kts 180°
2026-05-01 14:24 40.58715 -3.55991 3148 ft 128 kts 180°
2026-05-01 14:24 40.57827 -3.55985 2978 ft 127 kts 180°
2026-05-01 14:24 40.56946 -3.55976 2821 ft 127 kts 180°
2026-05-01 14:24 40.56071 -3.55963 2636 ft 127 kts 180°
2026-05-01 14:25 40.55182 -3.55954 2446 ft 126 kts 180°
2026-05-01 14:25 40.54318 -3.55950 2242 ft 125 kts 180°
2026-05-01 14:25 40.53448 -3.55944 2073 ft 125 kts 180°
2026-05-01 14:25 40.52583 -3.55937 1975 ft 124 kts 179°
2026-05-01 14:26 40.51822 -3.55933 1961 ft 86 kts 179°
2026-05-01 14:26 40.51036 -3.55954 1963 ft 29 kts 198°
2026-05-01 14:26 40.50862 -3.56066 1967 ft 26 kts 209°
2026-05-01 14:27 40.50702 -3.56143 1971 ft 24 kts 184°
2026-05-01 14:27 40.50541 -3.56137 1967 ft 23 kts 181°
2026-05-01 14:27 40.50382 -3.56145 1967 ft 18 kts 181°
2026-05-01 14:28 40.50277 -3.56148 1964 ft 13 kts 181°
2026-05-01 14:28 40.50176 -3.56150 1963 ft 12 kts 179°
2026-05-01 14:28 40.50078 -3.56148 1963 ft 13 kts 182°
2026-05-01 14:28 40.50054 -3.56189 1964 ft 6 kts 275°
2026-05-01 14:29 40.50084 -3.56290 1967 ft 16 kts 298°
2026-05-01 14:29 40.50112 -3.56392 1971 ft 0 kts 284°
2026-05-01 14:30 40.50112 -3.56807 1976 ft 28 kts 268°
2026-05-01 14:30 40.50110 -3.56961 1976 ft 10 kts 269°
2026-05-01 14:30 40.50109 -3.57059 1977 ft 12 kts 269°
2026-05-01 14:31 40.50103 -3.57182 1983 ft 0 kts 243°
2026-05-01 14:31 40.50099 -3.57189 1985 ft 3 kts 235°
2026-05-01 14:32 40.50091 -3.57203 1983 ft 6 kts 231°
2026-05-01 14:32 40.50057 -3.57227 1987 ft 3 kts 190°
2026-05-01 14:32 40.50036 -3.57228 1987 ft 6 kts 179°
2026-05-01 14:32 40.49945 -3.57227 1991 ft 14 kts 180°
2026-05-01 14:33 40.49856 -3.57227 1992 ft 13 kts 180°
2026-05-01 14:33 40.49758 -3.57209 1992 ft 13 kts 146°
2026-05-01 14:33 40.49741 -3.57122 1989 ft 10 kts 91°
2026-05-01 14:33 40.49725 -3.57035 1985 ft 8 kts 133°
2026-05-01 14:34 40.49686 -3.56989 1985 ft 9 kts 112°
2026-05-01 14:34 40.49684 -3.56900 1979 ft 9 kts 89°
2026-05-01 14:34 40.49685 -3.56873 1980 ft 0 kts 89°